Index of /20260430/WXO-DD/model_gdps/15km/00/123
Name Last modified Size Description
Parent Directory -
20260430T00Z_MSC_GDPS_AbsoluteVorticity_IsbL-0200_LatLon0.15_PT123H.grib2 2026-04-30 04:30 1.5M
20260430T00Z_MSC_GDPS_AbsoluteVorticity_IsbL-0250_LatLon0.15_PT123H.grib2 2026-04-30 04:30 1.3M
20260430T00Z_MSC_GDPS_AbsoluteVorticity_IsbL-0500_LatLon0.15_PT123H.grib2 2026-04-30 04:30 1.5M
20260430T00Z_MSC_GDPS_AbsoluteVorticity_IsbL-0700_LatLon0.15_PT123H.grib2 2026-04-30 04:30 1.6M
20260430T00Z_MSC_GDPS_AbsoluteVorticity_IsbL-0850_LatLon0.15_PT123H.grib2 2026-04-30 04:30 1.6M
20260430T00Z_MSC_GDPS_AirTemp_AGL-120m_LatLon0.15_PT123H.grib2 2026-04-30 04:30 901K
20260430T00Z_MSC_GDPS_AirTemp_AGL-2m_LatLon0.15_PT123H.grib2 2026-04-30 04:30 1.0M
20260430T00Z_MSC_GDPS_AirTemp_AGL-40m_LatLon0.15_PT123H.grib2 2026-04-30 04:30 921K
20260430T00Z_MSC_GDPS_AirTemp_AGL-80m_LatLon0.15_PT123H.grib2 2026-04-30 04:30 910K
20260430T00Z_MSC_GDPS_AirTemp_IsbL-0001_LatLon0.15_PT123H.grib2 2026-04-30 04:30 651K
20260430T00Z_MSC_GDPS_AirTemp_IsbL-0005_LatLon0.15_PT123H.grib2 2026-04-30 04:30 682K
20260430T00Z_MSC_GDPS_AirTemp_IsbL-0010_LatLon0.15_PT123H.grib2 2026-04-30 04:30 692K
20260430T00Z_MSC_GDPS_AirTemp_IsbL-0020_LatLon0.15_PT123H.grib2 2026-04-30 04:30 788K
20260430T00Z_MSC_GDPS_AirTemp_IsbL-0030_LatLon0.15_PT123H.grib2 2026-04-30 04:30 835K
20260430T00Z_MSC_GDPS_AirTemp_IsbL-0050_LatLon0.15_PT123H.grib2 2026-04-30 04:30 808K
20260430T00Z_MSC_GDPS_AirTemp_IsbL-0100_LatLon0.15_PT123H.grib2 2026-04-30 04:30 966K
20260430T00Z_MSC_GDPS_AirTemp_IsbL-0150_LatLon0.15_PT123H.grib2 2026-04-30 04:30 965K
20260430T00Z_MSC_GDPS_AirTemp_IsbL-0175_LatLon0.15_PT123H.grib2 2026-04-30 04:30 954K
20260430T00Z_MSC_GDPS_AirTemp_IsbL-0200_LatLon0.15_PT123H.grib2 2026-04-30 04:30 1.0M
20260430T00Z_MSC_GDPS_AirTemp_IsbL-0225_LatLon0.15_PT123H.grib2 2026-04-30 04:30 1.0M
20260430T00Z_MSC_GDPS_AirTemp_IsbL-0250_LatLon0.15_PT123H.grib2 2026-04-30 04:30 1.0M
20260430T00Z_MSC_GDPS_AirTemp_IsbL-0275_LatLon0.15_PT123H.grib2 2026-04-30 04:30 1.0M
20260430T00Z_MSC_GDPS_AirTemp_IsbL-0300_LatLon0.15_PT123H.grib2 2026-04-30 04:30 940K
20260430T00Z_MSC_GDPS_AirTemp_IsbL-0350_LatLon0.15_PT123H.grib2 2026-04-30 04:30 919K
20260430T00Z_MSC_GDPS_AirTemp_IsbL-0400_LatLon0.15_PT123H.grib2 2026-04-30 04:30 934K
20260430T00Z_MSC_GDPS_AirTemp_IsbL-0450_LatLon0.15_PT123H.grib2 2026-04-30 04:30 956K
20260430T00Z_MSC_GDPS_AirTemp_IsbL-0500_LatLon0.15_PT123H.grib2 2026-04-30 04:30 1.0M
20260430T00Z_MSC_GDPS_AirTemp_IsbL-0550_LatLon0.15_PT123H.grib2 2026-04-30 04:30 793K
20260430T00Z_MSC_GDPS_AirTemp_IsbL-0600_LatLon0.15_PT123H.grib2 2026-04-30 04:30 880K
20260430T00Z_MSC_GDPS_AirTemp_IsbL-0650_LatLon0.15_PT123H.grib2 2026-04-30 04:30 906K
20260430T00Z_MSC_GDPS_AirTemp_IsbL-0700_LatLon0.15_PT123H.grib2 2026-04-30 04:30 941K
20260430T00Z_MSC_GDPS_AirTemp_IsbL-0750_LatLon0.15_PT123H.grib2 2026-04-30 04:30 1.0M
20260430T00Z_MSC_GDPS_AirTemp_IsbL-0800_LatLon0.15_PT123H.grib2 2026-04-30 04:30 1.0M
20260430T00Z_MSC_GDPS_AirTemp_IsbL-0850_LatLon0.15_PT123H.grib2 2026-04-30 04:30 1.1M
20260430T00Z_MSC_GDPS_AirTemp_IsbL-0875_LatLon0.15_PT123H.grib2 2026-04-30 04:30 1.2M
20260430T00Z_MSC_GDPS_AirTemp_IsbL-0900_LatLon0.15_PT123H.grib2 2026-04-30 04:30 1.2M
20260430T00Z_MSC_GDPS_AirTemp_IsbL-0925_LatLon0.15_PT123H.grib2 2026-04-30 04:30 1.1M
20260430T00Z_MSC_GDPS_AirTemp_IsbL-0950_LatLon0.15_PT123H.grib2 2026-04-30 04:30 1.1M
20260430T00Z_MSC_GDPS_AirTemp_IsbL-0970_LatLon0.15_PT123H.grib2 2026-04-30 04:30 1.1M
20260430T00Z_MSC_GDPS_AirTemp_IsbL-0985_LatLon0.15_PT123H.grib2 2026-04-30 04:30 1.1M
20260430T00Z_MSC_GDPS_AirTemp_IsbL-1000_LatLon0.15_PT123H.grib2 2026-04-30 04:30 1.1M
20260430T00Z_MSC_GDPS_AirTemp_IsbL-1015_LatLon0.15_PT123H.grib2 2026-04-30 04:30 1.1M
20260430T00Z_MSC_GDPS_Albedo_Sfc_LatLon0.15_PT123H.grib2 2026-04-30 04:30 243K
20260430T00Z_MSC_GDPS_CAPE_Sfc_LatLon0.15_PT123H.grib2 2026-04-30 04:30 4.0M
20260430T00Z_MSC_GDPS_CIN_Sfc_LatLon0.15_PT123H.grib2 2026-04-30 04:30 2.8M
20260430T00Z_MSC_GDPS_CloudWater_EAtm_LatLon0.15_PT123H.grib2 2026-04-30 04:30 528K
20260430T00Z_MSC_GDPS_ConvectivePrecip-Accum_Sfc_LatLon0.15_PT123H.grib2 2026-04-30 04:30 3.5M
20260430T00Z_MSC_GDPS_DewPointDepression_AGL-2m_LatLon0.15_PT123H.grib2 2026-04-30 04:30 765K
20260430T00Z_MSC_GDPS_DewPointDepression_IsbL-0010_LatLon0.15_PT123H.grib2 2026-04-30 04:30 72K
20260430T00Z_MSC_GDPS_DewPointDepression_IsbL-0020_LatLon0.15_PT123H.grib2 2026-04-30 04:30 75K
20260430T00Z_MSC_GDPS_DewPointDepression_IsbL-0030_LatLon0.15_PT123H.grib2 2026-04-30 04:30 87K
20260430T00Z_MSC_GDPS_DewPointDepression_IsbL-0050_LatLon0.15_PT123H.grib2 2026-04-30 04:30 380K
20260430T00Z_MSC_GDPS_DewPointDepression_IsbL-0100_LatLon0.15_PT123H.grib2 2026-04-30 04:30 398K
20260430T00Z_MSC_GDPS_DewPointDepression_IsbL-0150_LatLon0.15_PT123H.grib2 2026-04-30 04:30 470K
20260430T00Z_MSC_GDPS_DewPointDepression_IsbL-0175_LatLon0.15_PT123H.grib2 2026-04-30 04:30 578K
20260430T00Z_MSC_GDPS_DewPointDepression_IsbL-0200_LatLon0.15_PT123H.grib2 2026-04-30 04:30 673K
20260430T00Z_MSC_GDPS_DewPointDepression_IsbL-0225_LatLon0.15_PT123H.grib2 2026-04-30 04:30 762K
20260430T00Z_MSC_GDPS_DewPointDepression_IsbL-0250_LatLon0.15_PT123H.grib2 2026-04-30 04:30 853K
20260430T00Z_MSC_GDPS_DewPointDepression_IsbL-0275_LatLon0.15_PT123H.grib2 2026-04-30 04:30 871K
20260430T00Z_MSC_GDPS_DewPointDepression_IsbL-0300_LatLon0.15_PT123H.grib2 2026-04-30 04:30 911K
20260430T00Z_MSC_GDPS_DewPointDepression_IsbL-0350_LatLon0.15_PT123H.grib2 2026-04-30 04:30 944K
20260430T00Z_MSC_GDPS_DewPointDepression_IsbL-0400_LatLon0.15_PT123H.grib2 2026-04-30 04:30 1.0M
20260430T00Z_MSC_GDPS_DewPointDepression_IsbL-0450_LatLon0.15_PT123H.grib2 2026-04-30 04:30 1.0M
20260430T00Z_MSC_GDPS_DewPointDepression_IsbL-0500_LatLon0.15_PT123H.grib2 2026-04-30 04:30 1.0M
20260430T00Z_MSC_GDPS_DewPointDepression_IsbL-0550_LatLon0.15_PT123H.grib2 2026-04-30 04:30 1.0M
20260430T00Z_MSC_GDPS_DewPointDepression_IsbL-0600_LatLon0.15_PT123H.grib2 2026-04-30 04:30 1.0M
20260430T00Z_MSC_GDPS_DewPointDepression_IsbL-0650_LatLon0.15_PT123H.grib2 2026-04-30 04:30 1.0M
20260430T00Z_MSC_GDPS_DewPointDepression_IsbL-0700_LatLon0.15_PT123H.grib2 2026-04-30 04:30 1.1M
20260430T00Z_MSC_GDPS_DewPointDepression_IsbL-0750_LatLon0.15_PT123H.grib2 2026-04-30 04:30 1.1M
20260430T00Z_MSC_GDPS_DewPointDepression_IsbL-0800_LatLon0.15_PT123H.grib2 2026-04-30 04:30 1.1M
20260430T00Z_MSC_GDPS_DewPointDepression_IsbL-0850_LatLon0.15_PT123H.grib2 2026-04-30 04:30 1.1M
20260430T00Z_MSC_GDPS_DewPointDepression_IsbL-0875_LatLon0.15_PT123H.grib2 2026-04-30 04:30 1.1M
20260430T00Z_MSC_GDPS_DewPointDepression_IsbL-0900_LatLon0.15_PT123H.grib2 2026-04-30 04:30 1.1M
20260430T00Z_MSC_GDPS_DewPointDepression_IsbL-0925_LatLon0.15_PT123H.grib2 2026-04-30 04:30 1.0M
20260430T00Z_MSC_GDPS_DewPointDepression_IsbL-0950_LatLon0.15_PT123H.grib2 2026-04-30 04:30 1.0M
20260430T00Z_MSC_GDPS_DewPointDepression_IsbL-0970_LatLon0.15_PT123H.grib2 2026-04-30 04:30 1.0M
20260430T00Z_MSC_GDPS_DewPointDepression_IsbL-0985_LatLon0.15_PT123H.grib2 2026-04-30 04:30 1.0M
20260430T00Z_MSC_GDPS_DewPointDepression_IsbL-1000_LatLon0.15_PT123H.grib2 2026-04-30 04:30 969K
20260430T00Z_MSC_GDPS_DewPointDepression_IsbL-1015_LatLon0.15_PT123H.grib2 2026-04-30 04:30 914K
20260430T00Z_MSC_GDPS_DewPoint_AGL-2m_LatLon0.15_PT123H.grib2 2026-04-30 04:30 601K
20260430T00Z_MSC_GDPS_DownwardLongwaveRadiationFlux-Accum_Sfc_LatLon0.15_PT123H.grib2 2026-04-30 04:30 808K
20260430T00Z_MSC_GDPS_DownwardShortwaveRadiationFlux-Accum_NTAtm_LatLon0.15_PT123H.grib2 2026-04-30 04:30 165K
20260430T00Z_MSC_GDPS_DownwardShortwaveRadiationFlux-Accum_Sfc_LatLon0.15_PT123H.grib2 2026-04-30 04:30 1.0M
20260430T00Z_MSC_GDPS_FreezingRain-Accum1h_Sfc_LatLon0.15_PT123H.grib2 2026-04-30 04:30 32K
20260430T00Z_MSC_GDPS_FreezingRain-Accum3h_Sfc_LatLon0.15_PT123H.grib2 2026-04-30 04:30 35K
20260430T00Z_MSC_GDPS_FreezingRain-Accum_Sfc_LatLon0.15_PT123H.grib2 2026-04-30 04:30 405K
20260430T00Z_MSC_GDPS_GeopotentialHeight_IsbL-0001_LatLon0.15_PT123H.grib2 2026-04-30 04:30 421K
20260430T00Z_MSC_GDPS_GeopotentialHeight_IsbL-0005_LatLon0.15_PT123H.grib2 2026-04-30 04:30 485K
20260430T00Z_MSC_GDPS_GeopotentialHeight_IsbL-0010_LatLon0.15_PT123H.grib2 2026-04-30 04:30 474K
20260430T00Z_MSC_GDPS_GeopotentialHeight_IsbL-0020_LatLon0.15_PT123H.grib2 2026-04-30 04:30 412K
20260430T00Z_MSC_GDPS_GeopotentialHeight_IsbL-0030_LatLon0.15_PT123H.grib2 2026-04-30 04:30 565K
20260430T00Z_MSC_GDPS_GeopotentialHeight_IsbL-0050_LatLon0.15_PT123H.grib2 2026-04-30 04:30 567K
20260430T00Z_MSC_GDPS_GeopotentialHeight_IsbL-0100_LatLon0.15_PT123H.grib2 2026-04-30 04:30 607K
20260430T00Z_MSC_GDPS_GeopotentialHeight_IsbL-0150_LatLon0.15_PT123H.grib2 2026-04-30 04:30 625K
20260430T00Z_MSC_GDPS_GeopotentialHeight_IsbL-0175_LatLon0.15_PT123H.grib2 2026-04-30 04:30 628K
20260430T00Z_MSC_GDPS_GeopotentialHeight_IsbL-0200_LatLon0.15_PT123H.grib2 2026-04-30 04:30 632K
20260430T00Z_MSC_GDPS_GeopotentialHeight_IsbL-0225_LatLon0.15_PT123H.grib2 2026-04-30 04:30 636K
20260430T00Z_MSC_GDPS_GeopotentialHeight_IsbL-0250_LatLon0.15_PT123H.grib2 2026-04-30 04:30 635K
20260430T00Z_MSC_GDPS_GeopotentialHeight_IsbL-0275_LatLon0.15_PT123H.grib2 2026-04-30 04:30 636K
20260430T00Z_MSC_GDPS_GeopotentialHeight_IsbL-0300_LatLon0.15_PT123H.grib2 2026-04-30 04:30 635K
20260430T00Z_MSC_GDPS_GeopotentialHeight_IsbL-0350_LatLon0.15_PT123H.grib2 2026-04-30 04:30 623K
20260430T00Z_MSC_GDPS_GeopotentialHeight_IsbL-0400_LatLon0.15_PT123H.grib2 2026-04-30 04:30 617K
20260430T00Z_MSC_GDPS_GeopotentialHeight_IsbL-0450_LatLon0.15_PT123H.grib2 2026-04-30 04:30 609K
20260430T00Z_MSC_GDPS_GeopotentialHeight_IsbL-0500_LatLon0.15_PT123H.grib2 2026-04-30 04:30 529K
20260430T00Z_MSC_GDPS_GeopotentialHeight_IsbL-0550_LatLon0.15_PT123H.grib2 2026-04-30 04:30 525K
20260430T00Z_MSC_GDPS_GeopotentialHeight_IsbL-0600_LatLon0.15_PT123H.grib2 2026-04-30 04:30 685K
20260430T00Z_MSC_GDPS_GeopotentialHeight_IsbL-0650_LatLon0.15_PT123H.grib2 2026-04-30 04:30 685K
20260430T00Z_MSC_GDPS_GeopotentialHeight_IsbL-0700_LatLon0.15_PT123H.grib2 2026-04-30 04:30 685K
20260430T00Z_MSC_GDPS_GeopotentialHeight_IsbL-0750_LatLon0.15_PT123H.grib2 2026-04-30 04:30 684K
20260430T00Z_MSC_GDPS_GeopotentialHeight_IsbL-0800_LatLon0.15_PT123H.grib2 2026-04-30 04:30 700K
20260430T00Z_MSC_GDPS_GeopotentialHeight_IsbL-0850_LatLon0.15_PT123H.grib2 2026-04-30 04:30 708K
20260430T00Z_MSC_GDPS_GeopotentialHeight_IsbL-0875_LatLon0.15_PT123H.grib2 2026-04-30 04:30 714K
20260430T00Z_MSC_GDPS_GeopotentialHeight_IsbL-0900_LatLon0.15_PT123H.grib2 2026-04-30 04:30 720K
20260430T00Z_MSC_GDPS_GeopotentialHeight_IsbL-0925_LatLon0.15_PT123H.grib2 2026-04-30 04:30 727K
20260430T00Z_MSC_GDPS_GeopotentialHeight_IsbL-0950_LatLon0.15_PT123H.grib2 2026-04-30 04:30 735K
20260430T00Z_MSC_GDPS_GeopotentialHeight_IsbL-0970_LatLon0.15_PT123H.grib2 2026-04-30 04:30 748K
20260430T00Z_MSC_GDPS_GeopotentialHeight_IsbL-0985_LatLon0.15_PT123H.grib2 2026-04-30 04:30 763K
20260430T00Z_MSC_GDPS_GeopotentialHeight_IsbL-1000_LatLon0.15_PT123H.grib2 2026-04-30 04:30 782K
20260430T00Z_MSC_GDPS_GeopotentialHeight_IsbL-1015_LatLon0.15_PT123H.grib2 2026-04-30 04:30 805K
20260430T00Z_MSC_GDPS_Humidex_Sfc_LatLon0.15_PT123H.grib2 2026-04-30 04:30 5.3M
20260430T00Z_MSC_GDPS_IcePellets-Accum1h_Sfc_LatLon0.15_PT123H.grib2 2026-04-30 04:30 14K
20260430T00Z_MSC_GDPS_IcePellets-Accum3h_Sfc_LatLon0.15_PT123H.grib2 2026-04-30 04:30 16K
20260430T00Z_MSC_GDPS_IcePellets-Accum_Sfc_LatLon0.15_PT123H.grib2 2026-04-30 04:30 92K
20260430T00Z_MSC_GDPS_KIndex_Sfc_LatLon0.15_PT123H.grib2 2026-04-30 04:30 6.5M
20260430T00Z_MSC_GDPS_LatentHeatNetFlux_Sfc_LatLon0.15_PT123H.grib2 2026-04-30 04:30 894K
20260430T00Z_MSC_GDPS_LiftedIndex-MU-VT_IsbL-0500_LatLon0.15_PT123H.grib2 2026-04-30 04:30 5.4M
20260430T00Z_MSC_GDPS_NetLongwaveRadiationFlux-Accum_Sfc_LatLon0.15_PT123H.grib2 2026-04-30 04:30 1.0M
20260430T00Z_MSC_GDPS_NetShortwaveRadiationFlux-Accum_Sfc_LatLon0.15_PT123H.grib2 2026-04-30 04:30 1.0M
20260430T00Z_MSC_GDPS_O3MixingRatio_Sfc_LatLon0.15_PT123H.grib2 2026-04-30 04:51 1.9M
20260430T00Z_MSC_GDPS_O3_EAtm_LatLon0.15_PT123H.grib2 2026-04-30 04:51 2.4M
20260430T00Z_MSC_GDPS_PlanetaryBoundaryLayerHeight_Sfc_LatLon0.15_PT123H.grib2 2026-04-30 04:30 2.5M
20260430T00Z_MSC_GDPS_Precip-Accum1h_Sfc_LatLon0.15_PT123H.grib2 2026-04-30 04:30 3.2M
20260430T00Z_MSC_GDPS_Precip-Accum3h_Sfc_LatLon0.15_PT123H.grib2 2026-04-30 04:30 3.5M
20260430T00Z_MSC_GDPS_Precip-Accum_Sfc_LatLon0.15_PT123H.grib2 2026-04-30 04:30 5.1M
20260430T00Z_MSC_GDPS_PrecipRate_Sfc_LatLon0.15_PT123H.grib2 2026-04-30 04:30 3.1M
20260430T00Z_MSC_GDPS_PrecipType-Instant_Sfc_LatLon0.15_PT123H.grib2 2026-04-30 04:30 1.5M
20260430T00Z_MSC_GDPS_Pressure_MSL_LatLon0.15_PT123H.grib2 2026-04-30 04:30 830K
20260430T00Z_MSC_GDPS_Pressure_PVU-1.5_LatLon0.15_PT123H.grib2 2026-04-30 04:30 5.8M
20260430T00Z_MSC_GDPS_Pressure_PVU-1_LatLon0.15_PT123H.grib2 2026-04-30 04:30 6.0M
20260430T00Z_MSC_GDPS_Pressure_PVU-2_LatLon0.15_PT123H.grib2 2026-04-30 04:30 5.6M
20260430T00Z_MSC_GDPS_Pressure_Sfc_LatLon0.15_PT123H.grib2 2026-04-30 04:30 1.1M
20260430T00Z_MSC_GDPS_RadiativeTemp_Sfc_LatLon0.15_PT123H.grib2 2026-04-30 04:30 664K
20260430T00Z_MSC_GDPS_Rain-Accum1h_Sfc_LatLon0.15_PT123H.grib2 2026-04-30 04:30 1.6M
20260430T00Z_MSC_GDPS_Rain-Accum3h_Sfc_LatLon0.15_PT123H.grib2 2026-04-30 04:30 1.6M
20260430T00Z_MSC_GDPS_Rain-Accum_Sfc_LatLon0.15_PT123H.grib2 2026-04-30 04:30 4.0M
20260430T00Z_MSC_GDPS_RelativeHumidity_AGL-2m_LatLon0.15_PT123H.grib2 2026-04-30 04:30 1.1M
20260430T00Z_MSC_GDPS_RelativeHumidity_IsbL-0010_LatLon0.15_PT123H.grib2 2026-04-30 04:30 196K
20260430T00Z_MSC_GDPS_RelativeHumidity_IsbL-0020_LatLon0.15_PT123H.grib2 2026-04-30 04:30 163K
20260430T00Z_MSC_GDPS_RelativeHumidity_IsbL-0030_LatLon0.15_PT123H.grib2 2026-04-30 04:30 188K
20260430T00Z_MSC_GDPS_RelativeHumidity_IsbL-0050_LatLon0.15_PT123H.grib2 2026-04-30 04:30 337K
20260430T00Z_MSC_GDPS_RelativeHumidity_IsbL-0100_LatLon0.15_PT123H.grib2 2026-04-30 04:30 501K
20260430T00Z_MSC_GDPS_RelativeHumidity_IsbL-0150_LatLon0.15_PT123H.grib2 2026-04-30 04:30 670K
20260430T00Z_MSC_GDPS_RelativeHumidity_IsbL-0175_LatLon0.15_PT123H.grib2 2026-04-30 04:30 791K
20260430T00Z_MSC_GDPS_RelativeHumidity_IsbL-0200_LatLon0.15_PT123H.grib2 2026-04-30 04:30 704K
20260430T00Z_MSC_GDPS_RelativeHumidity_IsbL-0225_LatLon0.15_PT123H.grib2 2026-04-30 04:30 776K
20260430T00Z_MSC_GDPS_RelativeHumidity_IsbL-0250_LatLon0.15_PT123H.grib2 2026-04-30 04:30 851K
20260430T00Z_MSC_GDPS_RelativeHumidity_IsbL-0275_LatLon0.15_PT123H.grib2 2026-04-30 04:30 876K
20260430T00Z_MSC_GDPS_RelativeHumidity_IsbL-0300_LatLon0.15_PT123H.grib2 2026-04-30 04:30 917K
20260430T00Z_MSC_GDPS_RelativeHumidity_IsbL-0350_LatLon0.15_PT123H.grib2 2026-04-30 04:30 941K
20260430T00Z_MSC_GDPS_RelativeHumidity_IsbL-0400_LatLon0.15_PT123H.grib2 2026-04-30 04:30 965K
20260430T00Z_MSC_GDPS_RelativeHumidity_IsbL-0450_LatLon0.15_PT123H.grib2 2026-04-30 04:30 1.0M
20260430T00Z_MSC_GDPS_RelativeHumidity_IsbL-0500_LatLon0.15_PT123H.grib2 2026-04-30 04:30 1.0M
20260430T00Z_MSC_GDPS_RelativeHumidity_IsbL-0550_LatLon0.15_PT123H.grib2 2026-04-30 04:30 1.0M
20260430T00Z_MSC_GDPS_RelativeHumidity_IsbL-0600_LatLon0.15_PT123H.grib2 2026-04-30 04:30 1.0M
20260430T00Z_MSC_GDPS_RelativeHumidity_IsbL-0650_LatLon0.15_PT123H.grib2 2026-04-30 04:30 1.1M
20260430T00Z_MSC_GDPS_RelativeHumidity_IsbL-0700_LatLon0.15_PT123H.grib2 2026-04-30 04:30 1.1M
20260430T00Z_MSC_GDPS_RelativeHumidity_IsbL-0750_LatLon0.15_PT123H.grib2 2026-04-30 04:30 1.2M
20260430T00Z_MSC_GDPS_RelativeHumidity_IsbL-0800_LatLon0.15_PT123H.grib2 2026-04-30 04:30 1.2M
20260430T00Z_MSC_GDPS_RelativeHumidity_IsbL-0850_LatLon0.15_PT123H.grib2 2026-04-30 04:30 1.3M
20260430T00Z_MSC_GDPS_RelativeHumidity_IsbL-0875_LatLon0.15_PT123H.grib2 2026-04-30 04:30 1.3M
20260430T00Z_MSC_GDPS_RelativeHumidity_IsbL-0900_LatLon0.15_PT123H.grib2 2026-04-30 04:30 1.2M
20260430T00Z_MSC_GDPS_RelativeHumidity_IsbL-0925_LatLon0.15_PT123H.grib2 2026-04-30 04:30 1.2M
20260430T00Z_MSC_GDPS_RelativeHumidity_IsbL-0950_LatLon0.15_PT123H.grib2 2026-04-30 04:30 1.2M
20260430T00Z_MSC_GDPS_RelativeHumidity_IsbL-0970_LatLon0.15_PT123H.grib2 2026-04-30 04:30 1.2M
20260430T00Z_MSC_GDPS_RelativeHumidity_IsbL-0985_LatLon0.15_PT123H.grib2 2026-04-30 04:30 1.1M
20260430T00Z_MSC_GDPS_RelativeHumidity_IsbL-1000_LatLon0.15_PT123H.grib2 2026-04-30 04:30 1.1M
20260430T00Z_MSC_GDPS_RelativeHumidity_IsbL-1015_LatLon0.15_PT123H.grib2 2026-04-30 04:30 1.1M
20260430T00Z_MSC_GDPS_RelativeVorticity_IsbL-0200_LatLon0.15_PT123H.grib2 2026-04-30 04:30 1.5M
20260430T00Z_MSC_GDPS_RelativeVorticity_IsbL-0250_LatLon0.15_PT123H.grib2 2026-04-30 04:30 1.3M
20260430T00Z_MSC_GDPS_RelativeVorticity_IsbL-0500_LatLon0.15_PT123H.grib2 2026-04-30 04:30 1.5M
20260430T00Z_MSC_GDPS_RelativeVorticity_IsbL-0700_LatLon0.15_PT123H.grib2 2026-04-30 04:30 1.6M
20260430T00Z_MSC_GDPS_RelativeVorticity_IsbL-0850_LatLon0.15_PT123H.grib2 2026-04-30 04:30 1.6M
20260430T00Z_MSC_GDPS_Runoff-Accum_Sfc_LatLon0.15_PT123H.grib2 2026-04-30 04:30 143K
20260430T00Z_MSC_GDPS_SensibleHeatNetFlux_Sfc_LatLon0.15_PT123H.grib2 2026-04-30 04:30 634K
20260430T00Z_MSC_GDPS_ShowalterIndex_IsbL-0500_LatLon0.15_PT123H.grib2 2026-04-30 04:30 6.2M
20260430T00Z_MSC_GDPS_Snow-Accum1h_Sfc_LatLon0.15_PT123H.grib2 2026-04-30 04:30 1.1M
20260430T00Z_MSC_GDPS_Snow-Accum3h_Sfc_LatLon0.15_PT123H.grib2 2026-04-30 04:30 1.1M
20260430T00Z_MSC_GDPS_Snow-Accum_Sfc_LatLon0.15_PT123H.grib2 2026-04-30 04:30 2.1M
20260430T00Z_MSC_GDPS_SnowDensity_Sfc_LatLon0.15_PT123H.grib2 2026-04-30 04:30 264K
20260430T00Z_MSC_GDPS_SnowDepth_Sfc_LatLon0.15_PT123H.grib2 2026-04-30 04:30 1.7M
20260430T00Z_MSC_GDPS_SoilTemp_DBS-0to10cm_LatLon0.15_PT123H.grib2 2026-04-30 04:30 509K
20260430T00Z_MSC_GDPS_SoilTemp_Sfc_LatLon0.15_PT123H.grib2 2026-04-30 04:30 571K
20260430T00Z_MSC_GDPS_SoilVolumetricIceContent_Sfc_LatLon0.15_PT123H.grib2 2026-04-30 04:30 194K
20260430T00Z_MSC_GDPS_SoilVolumetricWaterContent_DBS-0to10cm_LatLon0.15_PT123H.grib2 2026-04-30 04:30 590K
20260430T00Z_MSC_GDPS_SoilVolumetricWaterContent_DBS-0to1cm_LatLon0.15_PT123H.grib2 2026-04-30 04:30 653K
20260430T00Z_MSC_GDPS_SpecificHumidity_AGL-120m_LatLon0.15_PT123H.grib2 2026-04-30 04:30 1.1M
20260430T00Z_MSC_GDPS_SpecificHumidity_AGL-2m_LatLon0.15_PT123H.grib2 2026-04-30 04:30 1.2M
20260430T00Z_MSC_GDPS_SpecificHumidity_AGL-40m_LatLon0.15_PT123H.grib2 2026-04-30 04:30 1.1M
20260430T00Z_MSC_GDPS_SpecificHumidity_AGL-80m_LatLon0.15_PT123H.grib2 2026-04-30 04:30 1.1M
20260430T00Z_MSC_GDPS_SpecificHumidity_IsbL-0001_LatLon0.15_PT123H.grib2 2026-04-30 04:30 1.2M
20260430T00Z_MSC_GDPS_SpecificHumidity_IsbL-0005_LatLon0.15_PT123H.grib2 2026-04-30 04:30 1.1M
20260430T00Z_MSC_GDPS_SpecificHumidity_IsbL-0010_LatLon0.15_PT123H.grib2 2026-04-30 04:30 1.3M
20260430T00Z_MSC_GDPS_SpecificHumidity_IsbL-0020_LatLon0.15_PT123H.grib2 2026-04-30 04:30 1.3M
20260430T00Z_MSC_GDPS_SpecificHumidity_IsbL-0030_LatLon0.15_PT123H.grib2 2026-04-30 04:30 1.6M
20260430T00Z_MSC_GDPS_SpecificHumidity_IsbL-0050_LatLon0.15_PT123H.grib2 2026-04-30 04:30 1.3M
20260430T00Z_MSC_GDPS_SpecificHumidity_IsbL-0100_LatLon0.15_PT123H.grib2 2026-04-30 04:30 1.3M
20260430T00Z_MSC_GDPS_SpecificHumidity_IsbL-0150_LatLon0.15_PT123H.grib2 2026-04-30 04:30 1.3M
20260430T00Z_MSC_GDPS_SpecificHumidity_IsbL-0175_LatLon0.15_PT123H.grib2 2026-04-30 04:30 1.3M
20260430T00Z_MSC_GDPS_SpecificHumidity_IsbL-0200_LatLon0.15_PT123H.grib2 2026-04-30 04:30 1.3M
20260430T00Z_MSC_GDPS_SpecificHumidity_IsbL-0225_LatLon0.15_PT123H.grib2 2026-04-30 04:30 1.3M
20260430T00Z_MSC_GDPS_SpecificHumidity_IsbL-0250_LatLon0.15_PT123H.grib2 2026-04-30 04:30 1.4M
20260430T00Z_MSC_GDPS_SpecificHumidity_IsbL-0275_LatLon0.15_PT123H.grib2 2026-04-30 04:30 1.3M
20260430T00Z_MSC_GDPS_SpecificHumidity_IsbL-0300_LatLon0.15_PT123H.grib2 2026-04-30 04:30 1.2M
20260430T00Z_MSC_GDPS_SpecificHumidity_IsbL-0350_LatLon0.15_PT123H.grib2 2026-04-30 04:30 1.2M
20260430T00Z_MSC_GDPS_SpecificHumidity_IsbL-0400_LatLon0.15_PT123H.grib2 2026-04-30 04:30 1.4M
20260430T00Z_MSC_GDPS_SpecificHumidity_IsbL-0450_LatLon0.15_PT123H.grib2 2026-04-30 04:30 1.3M
20260430T00Z_MSC_GDPS_SpecificHumidity_IsbL-0500_LatLon0.15_PT123H.grib2 2026-04-30 04:30 1.4M
20260430T00Z_MSC_GDPS_SpecificHumidity_IsbL-0550_LatLon0.15_PT123H.grib2 2026-04-30 04:30 1.6M
20260430T00Z_MSC_GDPS_SpecificHumidity_IsbL-0600_LatLon0.15_PT123H.grib2 2026-04-30 04:30 1.7M
20260430T00Z_MSC_GDPS_SpecificHumidity_IsbL-0650_LatLon0.15_PT123H.grib2 2026-04-30 04:30 1.5M
20260430T00Z_MSC_GDPS_SpecificHumidity_IsbL-0700_LatLon0.15_PT123H.grib2 2026-04-30 04:30 1.6M
20260430T00Z_MSC_GDPS_SpecificHumidity_IsbL-0750_LatLon0.15_PT123H.grib2 2026-04-30 04:30 1.7M
20260430T00Z_MSC_GDPS_SpecificHumidity_IsbL-0800_LatLon0.15_PT123H.grib2 2026-04-30 04:30 1.8M
20260430T00Z_MSC_GDPS_SpecificHumidity_IsbL-0850_LatLon0.15_PT123H.grib2 2026-04-30 04:30 1.9M
20260430T00Z_MSC_GDPS_SpecificHumidity_IsbL-0875_LatLon0.15_PT123H.grib2 2026-04-30 04:30 1.9M
20260430T00Z_MSC_GDPS_SpecificHumidity_IsbL-0900_LatLon0.15_PT123H.grib2 2026-04-30 04:30 1.9M
20260430T00Z_MSC_GDPS_SpecificHumidity_IsbL-0925_LatLon0.15_PT123H.grib2 2026-04-30 04:30 1.9M
20260430T00Z_MSC_GDPS_SpecificHumidity_IsbL-0950_LatLon0.15_PT123H.grib2 2026-04-30 04:30 1.5M
20260430T00Z_MSC_GDPS_SpecificHumidity_IsbL-0970_LatLon0.15_PT123H.grib2 2026-04-30 04:30 1.5M
20260430T00Z_MSC_GDPS_SpecificHumidity_IsbL-0985_LatLon0.15_PT123H.grib2 2026-04-30 04:30 1.5M
20260430T00Z_MSC_GDPS_SpecificHumidity_IsbL-1000_LatLon0.15_PT123H.grib2 2026-04-30 04:30 1.5M
20260430T00Z_MSC_GDPS_SpecificHumidity_IsbL-1015_LatLon0.15_PT123H.grib2 2026-04-30 04:30 1.4M
20260430T00Z_MSC_GDPS_SpecificHumidity_Sfc_LatLon0.15_PT123H.grib2 2026-04-30 04:30 638K
20260430T00Z_MSC_GDPS_Thickness_IsbL-0850to0700_LatLon0.15_PT123H.grib2 2026-04-30 04:30 466K
20260430T00Z_MSC_GDPS_Thickness_IsbL-1000to0500_LatLon0.15_PT123H.grib2 2026-04-30 04:30 373K
20260430T00Z_MSC_GDPS_Thickness_IsbL-1000to0850_LatLon0.15_PT123H.grib2 2026-04-30 04:30 489K
20260430T00Z_MSC_GDPS_TotalCloudCover_Sfc_LatLon0.15_PT123H.grib2 2026-04-30 04:30 824K
20260430T00Z_MSC_GDPS_TotalTotalsIndex_Sfc_LatLon0.15_PT123H.grib2 2026-04-30 04:30 6.2M
20260430T00Z_MSC_GDPS_UVIndex-ClearSky_Sfc_LatLon0.15_PT123H.grib2 2026-04-30 04:51 1.0M
20260430T00Z_MSC_GDPS_UVIndex_Sfc_LatLon0.15_PT123H.grib2 2026-04-30 04:51 1.5M
20260430T00Z_MSC_GDPS_UpwardLongwaveRadiationFlux_NTAtm_LatLon0.15_PT123H.grib2 2026-04-30 04:30 1.0M
20260430T00Z_MSC_GDPS_VerticalVelocity_IsbL-0200_LatLon0.15_PT123H.grib2 2026-04-30 04:30 931K
20260430T00Z_MSC_GDPS_VerticalVelocity_IsbL-0250_LatLon0.15_PT123H.grib2 2026-04-30 04:30 1.1M
20260430T00Z_MSC_GDPS_VerticalVelocity_IsbL-0500_LatLon0.15_PT123H.grib2 2026-04-30 04:30 1.3M
20260430T00Z_MSC_GDPS_VerticalVelocity_IsbL-0600_LatLon0.15_PT123H.grib2 2026-04-30 04:30 1.1M
20260430T00Z_MSC_GDPS_VerticalVelocity_IsbL-0700_LatLon0.15_PT123H.grib2 2026-04-30 04:30 1.1M
20260430T00Z_MSC_GDPS_VerticalVelocity_IsbL-0850_LatLon0.15_PT123H.grib2 2026-04-30 04:30 1.3M
20260430T00Z_MSC_GDPS_WindChill_Sfc_LatLon0.15_PT123H.grib2 2026-04-30 04:30 5.3M
20260430T00Z_MSC_GDPS_WindDir_AGL-10m_LatLon0.15_PT123H.grib2 2026-04-30 04:30 1.3M
20260430T00Z_MSC_GDPS_WindDir_AGL-120m_LatLon0.15_PT123H.grib2 2026-04-30 04:30 1.3M
20260430T00Z_MSC_GDPS_WindDir_AGL-40m_LatLon0.15_PT123H.grib2 2026-04-30 04:30 1.4M
20260430T00Z_MSC_GDPS_WindDir_AGL-80m_LatLon0.15_PT123H.grib2 2026-04-30 04:30 1.3M
20260430T00Z_MSC_GDPS_WindDir_IsbL-0001_LatLon0.15_PT123H.grib2 2026-04-30 04:30 677K
20260430T00Z_MSC_GDPS_WindDir_IsbL-0005_LatLon0.15_PT123H.grib2 2026-04-30 04:30 792K
20260430T00Z_MSC_GDPS_WindDir_IsbL-0010_LatLon0.15_PT123H.grib2 2026-04-30 04:30 844K
20260430T00Z_MSC_GDPS_WindDir_IsbL-0020_LatLon0.15_PT123H.grib2 2026-04-30 04:30 935K
20260430T00Z_MSC_GDPS_WindDir_IsbL-0030_LatLon0.15_PT123H.grib2 2026-04-30 04:30 936K
20260430T00Z_MSC_GDPS_WindDir_IsbL-0050_LatLon0.15_PT123H.grib2 2026-04-30 04:30 946K
20260430T00Z_MSC_GDPS_WindDir_IsbL-0100_LatLon0.15_PT123H.grib2 2026-04-30 04:30 1.0M
20260430T00Z_MSC_GDPS_WindDir_IsbL-0150_LatLon0.15_PT123H.grib2 2026-04-30 04:30 1.0M
20260430T00Z_MSC_GDPS_WindDir_IsbL-0175_LatLon0.15_PT123H.grib2 2026-04-30 04:30 1.0M
20260430T00Z_MSC_GDPS_WindDir_IsbL-0200_LatLon0.15_PT123H.grib2 2026-04-30 04:30 1.1M
20260430T00Z_MSC_GDPS_WindDir_IsbL-0225_LatLon0.15_PT123H.grib2 2026-04-30 04:30 1.1M
20260430T00Z_MSC_GDPS_WindDir_IsbL-0250_LatLon0.15_PT123H.grib2 2026-04-30 04:30 1.1M
20260430T00Z_MSC_GDPS_WindDir_IsbL-0275_LatLon0.15_PT123H.grib2 2026-04-30 04:30 1.2M
20260430T00Z_MSC_GDPS_WindDir_IsbL-0300_LatLon0.15_PT123H.grib2 2026-04-30 04:30 1.2M
20260430T00Z_MSC_GDPS_WindDir_IsbL-0350_LatLon0.15_PT123H.grib2 2026-04-30 04:30 1.2M
20260430T00Z_MSC_GDPS_WindDir_IsbL-0400_LatLon0.15_PT123H.grib2 2026-04-30 04:30 1.3M
20260430T00Z_MSC_GDPS_WindDir_IsbL-0450_LatLon0.15_PT123H.grib2 2026-04-30 04:30 1.3M
20260430T00Z_MSC_GDPS_WindDir_IsbL-0500_LatLon0.15_PT123H.grib2 2026-04-30 04:30 1.3M
20260430T00Z_MSC_GDPS_WindDir_IsbL-0550_LatLon0.15_PT123H.grib2 2026-04-30 04:30 1.3M
20260430T00Z_MSC_GDPS_WindDir_IsbL-0600_LatLon0.15_PT123H.grib2 2026-04-30 04:30 1.4M
20260430T00Z_MSC_GDPS_WindDir_IsbL-0650_LatLon0.15_PT123H.grib2 2026-04-30 04:30 1.5M
20260430T00Z_MSC_GDPS_WindDir_IsbL-0700_LatLon0.15_PT123H.grib2 2026-04-30 04:30 1.6M
20260430T00Z_MSC_GDPS_WindDir_IsbL-0750_LatLon0.15_PT123H.grib2 2026-04-30 04:30 1.6M
20260430T00Z_MSC_GDPS_WindDir_IsbL-0800_LatLon0.15_PT123H.grib2 2026-04-30 04:30 1.8M
20260430T00Z_MSC_GDPS_WindDir_IsbL-0850_LatLon0.15_PT123H.grib2 2026-04-30 04:30 1.9M
20260430T00Z_MSC_GDPS_WindDir_IsbL-0875_LatLon0.15_PT123H.grib2 2026-04-30 04:30 1.9M
20260430T00Z_MSC_GDPS_WindDir_IsbL-0900_LatLon0.15_PT123H.grib2 2026-04-30 04:30 1.9M
20260430T00Z_MSC_GDPS_WindDir_IsbL-0925_LatLon0.15_PT123H.grib2 2026-04-30 04:30 1.9M
20260430T00Z_MSC_GDPS_WindDir_IsbL-0950_LatLon0.15_PT123H.grib2 2026-04-30 04:30 1.9M
20260430T00Z_MSC_GDPS_WindDir_IsbL-0970_LatLon0.15_PT123H.grib2 2026-04-30 04:30 2.0M
20260430T00Z_MSC_GDPS_WindDir_IsbL-0985_LatLon0.15_PT123H.grib2 2026-04-30 04:30 2.0M
20260430T00Z_MSC_GDPS_WindDir_IsbL-1000_LatLon0.15_PT123H.grib2 2026-04-30 04:30 2.0M
20260430T00Z_MSC_GDPS_WindDir_IsbL-1015_LatLon0.15_PT123H.grib2 2026-04-30 04:30 2.0M
20260430T00Z_MSC_GDPS_WindGust-Max_AGL-10m_LatLon0.15_PT123H.grib2 2026-04-30 04:30 1.8M
20260430T00Z_MSC_GDPS_WindGust-Min_AGL-10m_LatLon0.15_PT123H.grib2 2026-04-30 04:30 2.1M
20260430T00Z_MSC_GDPS_WindGust_AGL-10m_LatLon0.15_PT123H.grib2 2026-04-30 04:30 2.1M
20260430T00Z_MSC_GDPS_WindSpeed_AGL-10m_LatLon0.15_PT123H.grib2 2026-04-30 04:30 1.1M
20260430T00Z_MSC_GDPS_WindSpeed_AGL-120m_LatLon0.15_PT123H.grib2 2026-04-30 04:30 1.2M
20260430T00Z_MSC_GDPS_WindSpeed_AGL-40m_LatLon0.15_PT123H.grib2 2026-04-30 04:30 1.2M
20260430T00Z_MSC_GDPS_WindSpeed_AGL-80m_LatLon0.15_PT123H.grib2 2026-04-30 04:30 1.2M
20260430T00Z_MSC_GDPS_WindSpeed_IsbL-0001_LatLon0.15_PT123H.grib2 2026-04-30 04:30 647K
20260430T00Z_MSC_GDPS_WindSpeed_IsbL-0005_LatLon0.15_PT123H.grib2 2026-04-30 04:30 687K
20260430T00Z_MSC_GDPS_WindSpeed_IsbL-0010_LatLon0.15_PT123H.grib2 2026-04-30 04:30 623K
20260430T00Z_MSC_GDPS_WindSpeed_IsbL-0020_LatLon0.15_PT123H.grib2 2026-04-30 04:30 852K
20260430T00Z_MSC_GDPS_WindSpeed_IsbL-0030_LatLon0.15_PT123H.grib2 2026-04-30 04:30 860K
20260430T00Z_MSC_GDPS_WindSpeed_IsbL-0050_LatLon0.15_PT123H.grib2 2026-04-30 04:30 1.0M
20260430T00Z_MSC_GDPS_WindSpeed_IsbL-0100_LatLon0.15_PT123H.grib2 2026-04-30 04:30 1.1M
20260430T00Z_MSC_GDPS_WindSpeed_IsbL-0150_LatLon0.15_PT123H.grib2 2026-04-30 04:30 942K
20260430T00Z_MSC_GDPS_WindSpeed_IsbL-0175_LatLon0.15_PT123H.grib2 2026-04-30 04:30 1.0M
20260430T00Z_MSC_GDPS_WindSpeed_IsbL-0200_LatLon0.15_PT123H.grib2 2026-04-30 04:30 1.1M
20260430T00Z_MSC_GDPS_WindSpeed_IsbL-0225_LatLon0.15_PT123H.grib2 2026-04-30 04:30 1.1M
20260430T00Z_MSC_GDPS_WindSpeed_IsbL-0250_LatLon0.15_PT123H.grib2 2026-04-30 04:30 1.1M
20260430T00Z_MSC_GDPS_WindSpeed_IsbL-0275_LatLon0.15_PT123H.grib2 2026-04-30 04:30 1.1M
20260430T00Z_MSC_GDPS_WindSpeed_IsbL-0300_LatLon0.15_PT123H.grib2 2026-04-30 04:30 1.1M
20260430T00Z_MSC_GDPS_WindSpeed_IsbL-0350_LatLon0.15_PT123H.grib2 2026-04-30 04:30 1.1M
20260430T00Z_MSC_GDPS_WindSpeed_IsbL-0400_LatLon0.15_PT123H.grib2 2026-04-30 04:30 1.1M
20260430T00Z_MSC_GDPS_WindSpeed_IsbL-0450_LatLon0.15_PT123H.grib2 2026-04-30 04:30 1.1M
20260430T00Z_MSC_GDPS_WindSpeed_IsbL-0500_LatLon0.15_PT123H.grib2 2026-04-30 04:30 1.1M
20260430T00Z_MSC_GDPS_WindSpeed_IsbL-0550_LatLon0.15_PT123H.grib2 2026-04-30 04:30 1.1M
20260430T00Z_MSC_GDPS_WindSpeed_IsbL-0600_LatLon0.15_PT123H.grib2 2026-04-30 04:30 1.4M
20260430T00Z_MSC_GDPS_WindSpeed_IsbL-0650_LatLon0.15_PT123H.grib2 2026-04-30 04:30 1.4M
20260430T00Z_MSC_GDPS_WindSpeed_IsbL-0700_LatLon0.15_PT123H.grib2 2026-04-30 04:30 1.5M
20260430T00Z_MSC_GDPS_WindSpeed_IsbL-0750_LatLon0.15_PT123H.grib2 2026-04-30 04:30 1.5M
20260430T00Z_MSC_GDPS_WindSpeed_IsbL-0800_LatLon0.15_PT123H.grib2 2026-04-30 04:30 1.6M
20260430T00Z_MSC_GDPS_WindSpeed_IsbL-0850_LatLon0.15_PT123H.grib2 2026-04-30 04:30 1.7M
20260430T00Z_MSC_GDPS_WindSpeed_IsbL-0875_LatLon0.15_PT123H.grib2 2026-04-30 04:30 1.5M
20260430T00Z_MSC_GDPS_WindSpeed_IsbL-0900_LatLon0.15_PT123H.grib2 2026-04-30 04:30 1.5M
20260430T00Z_MSC_GDPS_WindSpeed_IsbL-0925_LatLon0.15_PT123H.grib2 2026-04-30 04:30 1.8M
20260430T00Z_MSC_GDPS_WindSpeed_IsbL-0950_LatLon0.15_PT123H.grib2 2026-04-30 04:30 1.8M
20260430T00Z_MSC_GDPS_WindSpeed_IsbL-0970_LatLon0.15_PT123H.grib2 2026-04-30 04:30 1.9M
20260430T00Z_MSC_GDPS_WindSpeed_IsbL-0985_LatLon0.15_PT123H.grib2 2026-04-30 04:30 1.9M
20260430T00Z_MSC_GDPS_WindSpeed_IsbL-1000_LatLon0.15_PT123H.grib2 2026-04-30 04:30 1.9M
20260430T00Z_MSC_GDPS_WindSpeed_IsbL-1015_LatLon0.15_PT123H.grib2 2026-04-30 04:30 1.8M
20260430T00Z_MSC_GDPS_WindU_AGL-10m_LatLon0.15_PT123H.grib2 2026-04-30 04:30 1.3M
20260430T00Z_MSC_GDPS_WindU_AGL-120m_LatLon0.15_PT123H.grib2 2026-04-30 04:30 1.0M
20260430T00Z_MSC_GDPS_WindU_AGL-40m_LatLon0.15_PT123H.grib2 2026-04-30 04:30 961K
20260430T00Z_MSC_GDPS_WindU_AGL-80m_LatLon0.15_PT123H.grib2 2026-04-30 04:30 1.0M
20260430T00Z_MSC_GDPS_WindU_IsbL-0001_LatLon0.15_PT123H.grib2 2026-04-30 04:30 501K
20260430T00Z_MSC_GDPS_WindU_IsbL-0005_LatLon0.15_PT123H.grib2 2026-04-30 04:30 687K
20260430T00Z_MSC_GDPS_WindU_IsbL-0010_LatLon0.15_PT123H.grib2 2026-04-30 04:30 697K
20260430T00Z_MSC_GDPS_WindU_IsbL-0020_LatLon0.15_PT123H.grib2 2026-04-30 04:30 728K
20260430T00Z_MSC_GDPS_WindU_IsbL-0030_LatLon0.15_PT123H.grib2 2026-04-30 04:30 736K
20260430T00Z_MSC_GDPS_WindU_IsbL-0050_LatLon0.15_PT123H.grib2 2026-04-30 04:30 694K
20260430T00Z_MSC_GDPS_WindU_IsbL-0100_LatLon0.15_PT123H.grib2 2026-04-30 04:30 861K
20260430T00Z_MSC_GDPS_WindU_IsbL-0150_LatLon0.15_PT123H.grib2 2026-04-30 04:30 1.0M
20260430T00Z_MSC_GDPS_WindU_IsbL-0175_LatLon0.15_PT123H.grib2 2026-04-30 04:30 1.0M
20260430T00Z_MSC_GDPS_WindU_IsbL-0200_LatLon0.15_PT123H.grib2 2026-04-30 04:30 1.0M
20260430T00Z_MSC_GDPS_WindU_IsbL-0225_LatLon0.15_PT123H.grib2 2026-04-30 04:30 845K
20260430T00Z_MSC_GDPS_WindU_IsbL-0250_LatLon0.15_PT123H.grib2 2026-04-30 04:30 848K
20260430T00Z_MSC_GDPS_WindU_IsbL-0275_LatLon0.15_PT123H.grib2 2026-04-30 04:30 875K
20260430T00Z_MSC_GDPS_WindU_IsbL-0300_LatLon0.15_PT123H.grib2 2026-04-30 04:30 867K
20260430T00Z_MSC_GDPS_WindU_IsbL-0350_LatLon0.15_PT123H.grib2 2026-04-30 04:30 882K
20260430T00Z_MSC_GDPS_WindU_IsbL-0400_LatLon0.15_PT123H.grib2 2026-04-30 04:30 1.1M
20260430T00Z_MSC_GDPS_WindU_IsbL-0450_LatLon0.15_PT123H.grib2 2026-04-30 04:30 1.1M
20260430T00Z_MSC_GDPS_WindU_IsbL-0500_LatLon0.15_PT123H.grib2 2026-04-30 04:30 1.1M
20260430T00Z_MSC_GDPS_WindU_IsbL-0550_LatLon0.15_PT123H.grib2 2026-04-30 04:30 1.1M
20260430T00Z_MSC_GDPS_WindU_IsbL-0600_LatLon0.15_PT123H.grib2 2026-04-30 04:30 1.1M
20260430T00Z_MSC_GDPS_WindU_IsbL-0650_LatLon0.15_PT123H.grib2 2026-04-30 04:30 1.2M
20260430T00Z_MSC_GDPS_WindU_IsbL-0700_LatLon0.15_PT123H.grib2 2026-04-30 04:30 1.2M
20260430T00Z_MSC_GDPS_WindU_IsbL-0750_LatLon0.15_PT123H.grib2 2026-04-30 04:30 1.3M
20260430T00Z_MSC_GDPS_WindU_IsbL-0800_LatLon0.15_PT123H.grib2 2026-04-30 04:30 1.3M
20260430T00Z_MSC_GDPS_WindU_IsbL-0850_LatLon0.15_PT123H.grib2 2026-04-30 04:30 1.4M
20260430T00Z_MSC_GDPS_WindU_IsbL-0875_LatLon0.15_PT123H.grib2 2026-04-30 04:30 1.5M
20260430T00Z_MSC_GDPS_WindU_IsbL-0900_LatLon0.15_PT123H.grib2 2026-04-30 04:30 1.5M
20260430T00Z_MSC_GDPS_WindU_IsbL-0925_LatLon0.15_PT123H.grib2 2026-04-30 04:30 1.5M
20260430T00Z_MSC_GDPS_WindU_IsbL-0950_LatLon0.15_PT123H.grib2 2026-04-30 04:30 1.4M
20260430T00Z_MSC_GDPS_WindU_IsbL-0970_LatLon0.15_PT123H.grib2 2026-04-30 04:30 1.4M
20260430T00Z_MSC_GDPS_WindU_IsbL-0985_LatLon0.15_PT123H.grib2 2026-04-30 04:30 1.4M
20260430T00Z_MSC_GDPS_WindU_IsbL-1000_LatLon0.15_PT123H.grib2 2026-04-30 04:30 1.4M
20260430T00Z_MSC_GDPS_WindU_IsbL-1015_LatLon0.15_PT123H.grib2 2026-04-30 04:30 1.3M
20260430T00Z_MSC_GDPS_WindV_AGL-10m_LatLon0.15_PT123H.grib2 2026-04-30 04:30 1.6M
20260430T00Z_MSC_GDPS_WindV_AGL-120m_LatLon0.15_PT123H.grib2 2026-04-30 04:30 963K
20260430T00Z_MSC_GDPS_WindV_AGL-40m_LatLon0.15_PT123H.grib2 2026-04-30 04:30 1.2M
20260430T00Z_MSC_GDPS_WindV_AGL-80m_LatLon0.15_PT123H.grib2 2026-04-30 04:30 963K
20260430T00Z_MSC_GDPS_WindV_IsbL-0001_LatLon0.15_PT123H.grib2 2026-04-30 04:30 778K
20260430T00Z_MSC_GDPS_WindV_IsbL-0005_LatLon0.15_PT123H.grib2 2026-04-30 04:30 852K
20260430T00Z_MSC_GDPS_WindV_IsbL-0010_LatLon0.15_PT123H.grib2 2026-04-30 04:30 880K
20260430T00Z_MSC_GDPS_WindV_IsbL-0020_LatLon0.15_PT123H.grib2 2026-04-30 04:30 930K
20260430T00Z_MSC_GDPS_WindV_IsbL-0030_LatLon0.15_PT123H.grib2 2026-04-30 04:30 932K
20260430T00Z_MSC_GDPS_WindV_IsbL-0050_LatLon0.15_PT123H.grib2 2026-04-30 04:30 1.0M
20260430T00Z_MSC_GDPS_WindV_IsbL-0100_LatLon0.15_PT123H.grib2 2026-04-30 04:30 851K
20260430T00Z_MSC_GDPS_WindV_IsbL-0150_LatLon0.15_PT123H.grib2 2026-04-30 04:30 1.0M
20260430T00Z_MSC_GDPS_WindV_IsbL-0175_LatLon0.15_PT123H.grib2 2026-04-30 04:30 1.0M
20260430T00Z_MSC_GDPS_WindV_IsbL-0200_LatLon0.15_PT123H.grib2 2026-04-30 04:30 834K
20260430T00Z_MSC_GDPS_WindV_IsbL-0225_LatLon0.15_PT123H.grib2 2026-04-30 04:30 841K
20260430T00Z_MSC_GDPS_WindV_IsbL-0250_LatLon0.15_PT123H.grib2 2026-04-30 04:30 839K
20260430T00Z_MSC_GDPS_WindV_IsbL-0275_LatLon0.15_PT123H.grib2 2026-04-30 04:30 925K
20260430T00Z_MSC_GDPS_WindV_IsbL-0300_LatLon0.15_PT123H.grib2 2026-04-30 04:30 918K
20260430T00Z_MSC_GDPS_WindV_IsbL-0350_LatLon0.15_PT123H.grib2 2026-04-30 04:30 931K
20260430T00Z_MSC_GDPS_WindV_IsbL-0400_LatLon0.15_PT123H.grib2 2026-04-30 04:30 871K
20260430T00Z_MSC_GDPS_WindV_IsbL-0450_LatLon0.15_PT123H.grib2 2026-04-30 04:30 873K
20260430T00Z_MSC_GDPS_WindV_IsbL-0500_LatLon0.15_PT123H.grib2 2026-04-30 04:30 1.1M
20260430T00Z_MSC_GDPS_WindV_IsbL-0550_LatLon0.15_PT123H.grib2 2026-04-30 04:30 1.1M
20260430T00Z_MSC_GDPS_WindV_IsbL-0600_LatLon0.15_PT123H.grib2 2026-04-30 04:30 1.1M
20260430T00Z_MSC_GDPS_WindV_IsbL-0650_LatLon0.15_PT123H.grib2 2026-04-30 04:30 1.2M
20260430T00Z_MSC_GDPS_WindV_IsbL-0700_LatLon0.15_PT123H.grib2 2026-04-30 04:30 1.2M
20260430T00Z_MSC_GDPS_WindV_IsbL-0750_LatLon0.15_PT123H.grib2 2026-04-30 04:30 1.2M
20260430T00Z_MSC_GDPS_WindV_IsbL-0800_LatLon0.15_PT123H.grib2 2026-04-30 04:30 1.3M
20260430T00Z_MSC_GDPS_WindV_IsbL-0850_LatLon0.15_PT123H.grib2 2026-04-30 04:30 1.4M
20260430T00Z_MSC_GDPS_WindV_IsbL-0875_LatLon0.15_PT123H.grib2 2026-04-30 04:30 1.4M
20260430T00Z_MSC_GDPS_WindV_IsbL-0900_LatLon0.15_PT123H.grib2 2026-04-30 04:30 1.4M
20260430T00Z_MSC_GDPS_WindV_IsbL-0925_LatLon0.15_PT123H.grib2 2026-04-30 04:30 1.4M
20260430T00Z_MSC_GDPS_WindV_IsbL-0950_LatLon0.15_PT123H.grib2 2026-04-30 04:30 1.4M
20260430T00Z_MSC_GDPS_WindV_IsbL-0970_LatLon0.15_PT123H.grib2 2026-04-30 04:30 1.4M
20260430T00Z_MSC_GDPS_WindV_IsbL-0985_LatLon0.15_PT123H.grib2 2026-04-30 04:30 1.4M
20260430T00Z_MSC_GDPS_WindV_IsbL-1000_LatLon0.15_PT123H.grib2 2026-04-30 04:30 1.4M
20260430T00Z_MSC_GDPS_WindV_IsbL-1015_LatLon0.15_PT123H.grib2 2026-04-30 04:30 1.6M